| time (UTC) | temp C | wind direction | speed KPH | gust KPH | rain 1hr cm | rain 24hr cm | rain mn cm | humidity % | barometer mb |
| 20260504201517 | 20 | 159 | 8.0 | 19.3 | 0.00 | 0.00 | 0.00 | 36 | 1008.5 |
| 20260504200016 | 20 | 211 | 3.2 | 20.9 | 0.00 | 0.00 | 0.00 | 33 | 1008.6 |
| 20260504194513 | 20 | 147 | 9.7 | 19.3 | 0.00 | 0.00 | 0.00 | 34 | 1008.7 |
| 20260504193020 | 20 | 155 | 6.4 | 17.7 | 0.00 | 0.00 | 0.00 | 34 | 1008.9 |
| 20260504191510 | 19 | 182 | 11.3 | 22.5 | 0.00 | 0.00 | 0.00 | 36 | 1009.2 |
| 20260504190010 | 20 | 222 | 9.7 | 19.3 | 0.00 | 0.00 | 0.00 | 35 | 1009.2 |
| 20260504184506 | 20 | 165 | 8.0 | 19.3 | 0.00 | 0.00 | 0.00 | 34 | 1009.6 |
| 20260504183005 | 20 | 234 | 6.4 | 20.9 | 0.00 | 0.00 | 0.00 | 33 | 1009.5 |
| 20260504181504 | 20 | 201 | 6.4 | 22.5 | 0.00 | 0.00 | 0.00 | 35 | 1009.6 |
| 20260504180003 | 20 | 192 | 9.7 | 24.1 | 0.00 | 0.00 | 0.00 | 33 | 1009.7 |
| 20260504174501 | 20 | 134 | 11.3 | 25.7 | 0.00 | 0.00 | 0.00 | 34 | 1010.0 |
| 20260504173018 | 20 | 132 | 8.0 | 19.3 | 0.00 | 0.00 | 0.00 | 32 | 1009.9 |
| 20260504171541 | 19 | 168 | 4.8 | 11.3 | 0.00 | 0.00 | 0.00 | 34 | 1010.1 |
| 20260504081504 | 3 | 242 | 0.0 | 0.0 | 0.00 | 0.00 | 0.00 | 76 | 1013.0 |
| 20260504044548 | 5 | 243 | 0.0 | 0.0 | 0.00 | 0.00 | 0.00 | 72 | 1012.9 |
| 20260504043047 | 5 | 243 | 0.0 | 0.0 | 0.00 | 0.00 | 0.00 | 72 | 1012.7 |
| 20260504041542 | 5 | 243 | 0.0 | 0.0 | 0.00 | 0.00 | 0.00 | 70 | 1012.6 |
| 20260504040041 | 5 | 243 | 0.0 | 0.0 | 0.00 | 0.00 | 0.00 | 66 | 1012.5 |
| 20260504034541 | 5 | 243 | 0.0 | 1.6 | 0.00 | 0.00 | 0.00 | 62 | 1012.4 |
| 20260504033038 | 6 | 243 | 0.0 | 1.6 | 0.00 | 0.00 | 0.00 | 61 | 1012.4 |
| 20260504031537 | 6 | 243 | 0.0 | 1.6 | 0.00 | 0.00 | 0.00 | 59 | 1012.4 |
| 20260504030041 | 7 | 243 | 0.0 | 1.6 | 0.00 | 0.00 | 0.00 | 59 | 1012.3 |
| 20260504024536 | 7 | 243 | 0.0 | 1.6 | 0.00 | 0.00 | 0.00 | 56 | 1012.4 |
| 20260504023035 | 7 | 243 | 0.0 | 4.8 | 0.00 | 0.00 | 0.00 | 54 | 1012.4 |
| 20260504021535 | 7 | 244 | 0.0 | 1.6 | 0.00 | 0.00 | 0.00 | 51 | 1012.4 |
| 20260504020037 | 7 | 244 | 0.0 | 3.2 | 0.00 | 0.00 | 0.00 | 51 | 1012.4 |
| 20260504014543 | 8 | 238 | 0.0 | 3.2 | 0.00 | 0.00 | 0.00 | 51 | 1012.3 |
| 20260504013034 | 8 | 238 | 0.0 | 3.2 | 0.00 | 0.00 | 0.00 | 50 | 1012.0 |
| 20260504011535 | 8 | 238 | 0.0 | 3.2 | 0.00 | 0.00 | 0.00 | 49 | 1012.1 |
| 20260504010033 | 9 | 238 | 0.0 | 4.8 | 0.00 | 0.00 | 0.00 | 48 | 1011.9 |
| 20260504004532 | 10 | 238 | 0.0 | 3.2 | 0.00 | 0.00 | 0.00 | 47 | 1011.8 |
| 20260504003031 | 10 | 238 | 0.0 | 3.2 | 0.00 | 0.00 | 0.00 | 44 | 1011.7 |
| 20260504001533 | 10 | 238 | 1.6 | 4.8 | 0.00 | 0.00 | 0.00 | 42 | 1011.5 |
| 20260504000030 | 11 | 238 | 3.2 | 8.0 | 0.00 | 0.00 | 0.00 | 40 | 1011.4 |
| 20260503234543 | 11 | 244 | 1.6 | 6.4 | 0.00 | 0.00 | 0.00 | 39 | 1011.2 |
| 20260503233031 | 11 | 282 | 4.8 | 9.7 | 0.00 | 0.00 | 0.00 | 38 | 1011.0 |
| 20260503231529 | 12 | 232 | 3.2 | 8.0 | 0.00 | 0.00 | 0.00 | 38 | 1011.1 |
| 20260503230040 | 12 | 201 | 1.6 | 8.0 | 0.00 | 0.00 | 0.00 | 37 | 1010.9 |
| 20260503224528 | 12 | 217 | 3.2 | 11.3 | 0.00 | 0.00 | 0.00 | 36 | 1010.9 |
| 20260503223028 | 12 | 227 | 4.8 | 12.9 | 0.00 | 0.00 | 0.00 | 35 | 1010.9 |
| 20260503221527 | 12 | 281 | 4.8 | 9.7 | 0.00 | 0.00 | 0.00 | 35 | 1010.9 |
| 20260503220042 | 12 | 247 | 3.2 | 9.7 | 0.00 | 0.00 | 0.00 | 34 | 1011.0 |
| 20260503214526 | 12 | 227 | 4.8 | 14.5 | 0.00 | 0.00 | 0.00 | 34 | 1010.8 |
| 20260503213025 | 12 | 240 | 6.4 | 14.5 | 0.00 | 0.00 | 0.00 | 34 | 1010.7 |
| 20260503211524 | 12 | 290 | 4.8 | 9.7 | 0.00 | 0.00 | 0.00 | 32 | 1010.6 |
| 20260503210023 | 12 | 314 | 4.8 | 16.1 | 0.00 | 0.00 | 0.00 | 33 | 1010.5 |
| 20260503204522 | 12 | 322 | 6.4 | 12.9 | 0.00 | 0.00 | 0.00 | 32 | 1010.4 |
| 20260503203029 | 12 | 294 | 3.2 | 12.9 | 0.00 | 0.00 | 0.00 | 31 | 1010.4 |